Sioux Falls, SD

1:46 PM CDT on September 26, 2017 (GMT -0500)
Foss

Weather History for KFSD - February, 2013

Change the Weather History Date:

Saturday, February 9, 2013

  Actual Average Record
Temperature  
Mean Temperature 35 °F 20 °F  
Max Temperature 43 °F 30 °F 58 °F (1977)
Min Temperature 26 °F 10 °F -42 °F (1899)
Degree Days  
Heating Degree Days 30 45  
Month to date heating degree days 363 417  
Since 1 July heating degree days 4769 5049  
Cooling Degree Days 0 0  
Month to date cooling degree days 0 0  
Year to date cooling degree days 0 0  
Moisture  
Dew Point 29 °F    
Average Humidity 83    
Maximum Humidity 93    
Minimum Humidity 64    
Precipitation  
Precipitation 0.04 in 0.02 in 1.50 in (1909)
Month to date precipitation 0.10 0.16  
Year to date precipitation 0.51 0.72  
Snow  
Snow 0.00 in 0.20 in 15.00 in (1909)
Month to date snowfall 0.7 2.2  
Since 1 July snowfall 16.6 26.8  
Snow Depth 0.00 in    
Sea Level Pressure  
Sea Level Pressure 29.90 in    
Wind  
Wind Speed 13 mph (SSE)    
Max Wind Speed 23 mph    
Max Gust Speed 30 mph    
Visibility 7 miles    
Events Rain    
T = Trace of Precipitation, MM = Missing Value Source: NWS Daily Summary

Daily Weather History Graph

Daily Weather History Graph

Search for Another Location

Airport or City:

Trip Planner

Search our weather history database for the weather conditions in past years. The results will help you decide how hot, cold, wet, or windy it might be!

Date:

Astronomy

Feb. 09, 2013 Rise Set
Actual Time 7:33 AM CST 5:49 PM CST
Civil Twilight 7:03 AM CST 6:19 PM CST
Nautical Twilight 6:29 AM CST 6:53 PM CST
Astronomical Twilight 5:56 AM CST 7:26 PM CST
Moon 6:45 AM CST (2/9) 5:34 PM CST (2/9)
Length of Visible Light 11h 15m
Length of Day
10h 16m
Waning Crescent, 0% of the Moon is Illuminated
Feb 9
Waning Crescent
Feb 10
New
Feb 17
First Quarter
Feb 25
Full
Mar 4
Last Quarter

Hourly Weather History & Observations

Time (CST) Temp. Windchill Dew Point Humidity Pressure Visibility Wind Dir Wind Speed Gust Speed Precip Events Conditions
12:49 AM 28.4 °F 15.4 °F 24.8 °F 86% 30.03 in 9.0 mi SSE 19.6 mph 27.6 mph N/A   Overcast
12:56 AM 27.0 °F 15.2 °F 24.1 °F 89% 30.10 in 9.0 mi SSE 15.0 mph 25.3 mph N/A   Mostly Cloudy
1:10 AM 26.6 °F 14.3 °F 24.8 °F 93% 30.02 in 9.0 mi SSE 16.1 mph - N/A   Scattered Clouds
1:56 AM 28.0 °F 15.3 °F 24.1 °F 85% 30.07 in 9.0 mi SSE 18.4 mph 27.6 mph N/A   Clear
2:13 AM 26.6 °F 13.8 °F 24.8 °F 93% 30.01 in 8.0 mi SSE 17.3 mph 23.0 mph N/A   Mostly Cloudy
2:34 AM 26.6 °F 14.7 °F 24.8 °F 93% 30.00 in 6.0 mi SSE 15.0 mph 26.5 mph N/A   Overcast
2:56 AM 27.0 °F 14.7 °F 25.0 °F 92% 30.05 in 6.0 mi SSE 16.1 mph 24.2 mph N/A   Overcast
3:56 AM 28.0 °F 14.9 °F 26.1 °F 92% 30.01 in 5.0 mi South 19.6 mph 26.5 mph N/A   Overcast
4:56 AM 28.9 °F 16.9 °F 26.1 °F 89% 30.00 in 5.0 mi South 17.3 mph 24.2 mph N/A   Overcast
5:56 AM 28.9 °F 17.7 °F 26.1 °F 89% 30.01 in 5.0 mi South 15.0 mph - N/A   Overcast
6:56 AM 28.9 °F 18.2 °F 26.1 °F 89% 30.01 in 5.0 mi South 13.8 mph - N/A   Overcast
7:56 AM 28.9 °F 17.7 °F 27.0 °F 92% 30.01 in 5.0 mi South 15.0 mph 19.6 mph N/A   Overcast
8:56 AM 30.0 °F 21.1 °F 27.0 °F 88% 30.00 in 4.0 mi South 10.4 mph 21.9 mph N/A   Overcast
9:56 AM 30.9 °F 21.2 °F 28.0 °F 89% 29.99 in 4.0 mi South 12.7 mph - N/A   Overcast
10:56 AM 32.0 °F 22.1 °F 28.9 °F 88% 29.97 in 5.0 mi South 13.8 mph 20.7 mph N/A   Overcast
11:05 AM 33.8 °F 23.2 °F 28.4 °F 81% 29.91 in 5.0 mi South 17.3 mph - N/A   Overcast
11:56 AM 34.0 °F 25.0 °F 28.9 °F 82% 29.94 in 5.0 mi South 12.7 mph - N/A   Haze
12:54 PM 35.6 °F 27.5 °F 30.2 °F 81% 29.85 in 7.0 mi South 11.5 mph - N/A   Overcast
12:56 PM 36.0 °F 27.1 °F 30.0 °F 79% 29.90 in 7.0 mi South 13.8 mph - N/A   Overcast
1:56 PM 41.0 °F 34.3 °F 30.9 °F 67% 29.86 in 8.0 mi South 11.5 mph 20.7 mph N/A   Overcast
2:31 PM 41.0 °F 33.9 °F 30.2 °F 65% 29.79 in 9.0 mi South 12.7 mph - N/A   Scattered Clouds
2:56 PM 43.0 °F 37.7 °F 32.0 °F 65% 29.82 in 9.0 mi SSE 9.2 mph - N/A   Scattered Clouds
3:56 PM 43.0 °F 36.4 °F 32.0 °F 65% 29.81 in 10.0 mi SE 12.7 mph - N/A   Clear
4:56 PM 41.0 °F 34.7 °F 32.0 °F 70% 29.77 in 10.0 mi SE 10.4 mph - N/A   Clear
5:56 PM 39.9 °F 33.9 °F 32.0 °F 73% 29.77 in 10.0 mi ESE 9.2 mph - N/A   Clear
6:56 PM 39.9 °F 33.4 °F 33.1 °F 77% 29.78 in 10.0 mi SE 10.4 mph - N/A   Mostly Cloudy
7:56 PM 39.9 °F 33.4 °F 32.0 °F 73% 29.78 in 10.0 mi SE 10.4 mph - N/A   Overcast
8:56 PM 37.0 °F 28.9 °F 33.1 °F 86% 29.78 in 9.0 mi ESE 12.7 mph - 0.02 in Rain Light Rain
9:56 PM 35.1 °F 25.9 °F 30.9 °F 85% 29.77 in 9.0 mi ESE 13.8 mph - 0.00 in   Overcast
10:56 PM 34.0 °F 24.6 °F 30.9 °F 89% 29.73 in 5.0 mi ESE 13.8 mph 20.7 mph 0.00 in Rain Light Rain
11:47 PM 33.8 °F 24.8 °F 30.2 °F 87% 29.68 in 7.0 mi SE 12.7 mph - 0.02 in Rain Light Rain
11:56 PM 33.1 °F 23.9 °F 30.9 °F 92% 29.72 in 5.0 mi ESE 12.7 mph - 0.02 in Rain Light Rain